Weather History for Avoca, PA

Change the Weather History Date:

Friday, March 15, 2013

  Actual Average Record
Temperature  
Mean Temperature 32 °F 36 °F  
Max Temperature 41 °F 46 °F 79 °F (1990)
Min Temperature 22 °F 27 °F 7 °F (1993)
Degree Days  
Heating Degree Days 33 29  
Month to date heating degree days 445 464  
Since 1 July heating degree days 4669 5070  
Cooling Degree Days 0 0  
Month to date cooling degree days 0 0  
Year to date cooling degree days 0 0  
Moisture  
Dew Point 19 °F    
Average Humidity 61    
Maximum Humidity 70    
Minimum Humidity 51    
Precipitation  
Precipitation 0.00 in 0.08 in 1.73 in (1916)
Month to date precipitation 0.95 1.11  
Year to date precipitation 4.28 5.51  
Sea Level Pressure  
Sea Level Pressure 29.86 in    
Wind  
Wind Speed 9 mph (West)    
Max Wind Speed 17 mph    
Max Gust Speed 30 mph    
Visibility 10 miles    
Events      
T = Trace of Precipitation, MM = Missing Value Source: NWS Daily Summary

Daily Weather History Graph

Daily Weather History Graph

Search for Another Location

Airport:

Trip Planner

Search our weather history database for the weather conditions in past years. The results will help you decide how hot, cold, wet, or windy it might be!

Date:

Astronomy

Mar. 15, 2013 Rise Set
Actual Time 7:14 AM EDT 7:09 PM EDT
Civil Twilight 6:46 AM EDT 7:37 PM EDT
Nautical Twilight 6:14 AM EDT 8:09 PM EDT
Astronomical Twilight 5:42 AM EDT 8:42 PM EDT
Moon 9:00 AM EDT (3/15) 11:24 PM EDT (3/15)
Length of Visible Light 12h 50m
Length of Day
11h 55m
Waxing Crescent, 15% of the Moon is Illuminated
Mar 15
Waxing Crescent
Mar 19
First Quarter
Mar 27
Full
Apr 3
Last Quarter
Apr 10
New

Hourly Weather History & Observations

Time (EDT) Temp. Windchill Dew Point Humidity Pressure Visibility Wind Dir Wind Speed Gust Speed Precip Events Conditions
12:54 AM 27.0 °F 17.3 °F 12.0 °F 53% 30.01 in 10.0 mi WNW 10.4 mph - N/A   Scattered Clouds
1:54 AM 27.0 °F 18.0 °F 12.0 °F 53% 30.01 in 10.0 mi WNW 9.2 mph 19.6 mph N/A   Overcast
2:54 AM 26.1 °F 16.2 °F 12.9 °F 58% 30.01 in 10.0 mi WNW 10.4 mph - N/A   Partly Cloudy
3:54 AM 25.0 °F 18.1 °F 12.9 °F 60% 29.99 in 10.0 mi West 5.8 mph - N/A   Clear
4:54 AM 25.0 °F 17.1 °F 12.9 °F 60% 29.97 in 10.0 mi WNW 6.9 mph - N/A   Clear
5:54 AM 23.0 °F - 12.9 °F 65% 29.96 in 10.0 mi Calm Calm - N/A   Clear
6:54 AM 21.9 °F 17.2 °F 12.9 °F 68% 29.97 in 10.0 mi SW 3.5 mph - N/A   Clear
7:54 AM 23.0 °F 17.0 °F 12.9 °F 65% 29.95 in 10.0 mi SW 4.6 mph - N/A   Clear
8:54 AM 27.0 °F 18.7 °F 15.1 °F 61% 29.93 in 10.0 mi WSW 8.1 mph - N/A   Clear
9:54 AM 30.9 °F 22.2 °F 17.1 °F 57% 29.91 in 10.0 mi WSW 10.4 mph 19.6 mph N/A   Mostly Cloudy
10:54 AM 30.9 °F 22.8 °F 17.1 °F 57% 29.87 in 10.0 mi SW 9.2 mph 23.0 mph N/A   Overcast
11:54 AM 33.1 °F 23.9 °F 18.0 °F 54% 29.84 in 10.0 mi WSW 12.7 mph 21.9 mph N/A   Overcast
12:54 PM 35.1 °F 26.4 °F 19.9 °F 54% 29.82 in 10.0 mi WSW 12.7 mph 17.3 mph N/A   Overcast
1:54 PM 36.0 °F 28.5 °F 21.0 °F 55% 29.78 in 10.0 mi WSW 10.4 mph 21.9 mph N/A   Overcast
2:54 PM 37.0 °F 29.3 °F 21.9 °F 54% 29.75 in 10.0 mi SW 11.5 mph 19.6 mph N/A   Overcast
3:54 PM 37.9 °F 32.7 °F 24.1 °F 57% 29.74 in 10.0 mi WSW 6.9 mph - N/A   Overcast
4:54 PM 39.9 °F 33.9 °F 25.0 °F 55% 29.72 in 10.0 mi WSW 9.2 mph - N/A   Overcast
5:54 PM 39.9 °F 34.5 °F 26.1 °F 58% 29.73 in 10.0 mi WSW 8.1 mph - N/A   Overcast
6:54 PM 41.0 °F 32.5 °F 26.6 °F 57% 29.73 in 10.0 mi West 17.3 mph 24.2 mph N/A   Overcast
7:54 PM 39.9 °F 31.8 °F 27.0 °F 60% 29.77 in 10.0 mi West 15.0 mph 20.7 mph N/A   Overcast
8:54 PM 37.9 °F 31.5 °F 28.0 °F 68% 29.79 in 10.0 mi NW 9.2 mph - N/A   Overcast
9:54 PM 37.0 °F 30.4 °F 27.0 °F 67% 29.80 in 10.0 mi NNW 9.2 mph - N/A   Overcast
10:54 PM 36.0 °F 28.5 °F 26.1 °F 67% 29.81 in 10.0 mi WNW 10.4 mph - N/A   Partly Cloudy
11:54 PM 35.1 °F 28.6 °F 25.0 °F 67% 29.82 in 10.0 mi NW 8.1 mph - N/A   Mostly Cloudy